contact:dominique.lefevre@mio.osupytheas.fr, maurice.libes@osupytheas.fr, didier.mallarino@osupytheas.fr
Project:EMSO http://www.emso-fr.org/EMSO-France
Depth: 2436.0 m
Title:EMSO Ligure Ouest : Data MII capteur AQUADOPP
Date,Latitude,Longitude,X_East,Y_North,Z_Up,Amplitude_X,Amplitude_Y,Amplitude_Z,Batterie,SoundSpeed,Heading,Pitch,Roll,Pressure,TIS,Speed,Direction
, degrees North, degrees East, m.s-1, m.s-1,m.s-1, 1, 1, 1, Volt, m.s-1, degree, degree, degree, dbar, degree_C, m.s-1, degree
2023-12-09T00:04:03,42.805,6.029,-0.015,0.017,-0.01,112.0,110.0,106.0,13.4,1505.2,354.5,-0.8,1.8,2471.561,13.29,0.022,318.6
2023-12-09T00:07:03,42.805,6.029,-0.015,0.024,-0.005,110.0,110.0,107.0,13.4,1505.2,353.7,-0.8,1.8,2471.556,13.29,0.028,328.0
2023-12-09T00:10:03,42.805,6.029,-0.018,0.024,0.001,111.0,109.0,107.0,13.3,1505.2,346.8,-0.8,1.8,2471.561,13.29,0.03,323.1
2023-12-09T00:13:03,42.805,6.029,-0.002,0.032,-0.015,110.0,110.0,107.0,13.3,1505.2,351.7,-0.8,1.9,2471.556,13.29,0.032,356.4
2023-12-09T00:16:03,42.805,6.029,-0.008,0.015,-0.003,111.0,110.0,107.0,13.4,1505.2,342.8,-0.8,1.8,2471.5,13.29,0.017,331.9
2023-12-09T00:19:03,42.805,6.029,-0.015,0.034,0.005,112.0,109.0,109.0,13.4,1505.2,0.0,-0.7,1.8,2471.503,13.29,0.037,336.2
2023-12-09T00:22:03,42.805,6.029,0.01,0.014,0.002,110.0,109.0,105.0,13.4,1505.2,346.6,-0.8,1.8,2471.485,13.29,0.017,35.5
2023-12-09T00:25:03,42.805,6.029,0.005,0.019,-0.007,111.0,111.0,107.0,13.4,1505.2,354.6,-0.8,1.8,2471.526,13.29,0.019,14.7
2023-12-09T00:28:03,42.805,6.029,-0.006,0.013,0.006,111.0,111.0,107.0,13.3,1505.2,348.2,-0.8,1.8,2471.52,13.29,0.014,335.2
2023-12-09T00:31:03,42.805,6.029,-0.021,0.025,-0.031,110.0,111.0,108.0,13.4,1505.2,0.0,-0.7,1.8,2471.473,13.29,0.032,320.0
2023-12-09T00:34:03,42.805,6.029,-0.009,0.001,-0.017,110.0,110.0,107.0,13.3,1505.2,355.6,-0.8,1.8,2471.522,13.29,0.009,276.3
2023-12-09T00:37:03,42.805,6.029,-0.012,0.033,0.0,111.0,110.0,107.0,13.4,1505.2,350.5,-0.8,1.8,2471.469,13.29,0.035,340.0
2023-12-09T00:40:03,42.805,6.029,-0.003,0.047,0.025,110.0,110.0,107.0,13.4,1505.2,2.5,-0.8,1.8,2471.508,13.29,0.047,356.4
2023-12-09T00:43:03,42.805,6.029,-0.021,0.014,0.026,110.0,110.0,106.0,13.4,1505.2,339.6,-0.8,1.8,2471.527,13.29,0.025,303.7
2023-12-09T00:46:03,42.805,6.029,-0.04,0.023,-0.026,111.0,111.0,107.0,13.3,1505.2,353.4,-0.8,1.8,2471.529,13.29,0.046,299.9
2023-12-09T00:49:03,42.805,6.029,0.002,0.036,0.005,110.0,111.0,108.0,13.4,1505.2,355.4,-0.7,1.8,2471.539,13.29,0.036,3.2
2023-12-09T00:52:03,42.805,6.029,-0.032,0.007,0.005,111.0,109.0,107.0,13.4,1505.2,0.8,-0.8,1.8,2471.528,13.29,0.032,282.3
2023-12-09T00:55:03,42.805,6.029,-0.021,0.023,0.003,110.0,110.0,107.0,13.4,1505.2,347.6,-0.8,1.8,2471.499,13.29,0.031,317.6
2023-12-09T00:58:03,42.805,6.029,-0.005,0.009,-0.019,111.0,109.0,109.0,13.4,1505.2,355.4,-0.8,1.8,2471.513,13.29,0.01,330.9
2023-12-09T01:04:03,42.805,6.029,-0.013,0.009,-0.003,112.0,111.0,107.0,13.3,1505.2,344.1,-0.8,1.8,2471.581,13.29,0.015,304.7
2023-12-09T01:07:03,42.805,6.029,0.008,0.027,-0.015,110.0,109.0,107.0,13.4,1505.2,350.9,-0.8,1.9,2471.552,13.29,0.028,16.5
2023-12-09T01:10:03,42.805,6.029,0.012,0.023,-0.009,111.0,109.0,107.0,13.4,1505.2,357.6,-0.7,1.8,2471.556,13.29,0.025,27.6
2023-12-09T01:13:03,42.805,6.029,-0.003,0.001,0.007,110.0,109.0,108.0,13.4,1505.2,352.8,-0.7,1.8,2471.554,13.29,0.003,288.4
2023-12-09T01:16:03,42.805,6.029,-0.003,0.041,-0.031,111.0,109.0,106.0,13.4,1505.2,0.0,-0.7,1.8,2471.551,13.29,0.041,355.8
2023-12-09T01:19:03,42.805,6.029,-0.028,0.024,-0.021,110.0,111.0,107.0,13.4,1505.2,343.4,-0.8,1.8,2471.559,13.29,0.036,310.6
2023-12-09T01:22:03,42.805,6.029,-0.027,0.035,-0.04,110.0,110.0,107.0,13.3,1505.2,349.5,-0.8,1.8,2471.544,13.29,0.044,322.3
2023-12-09T01:25:03,42.805,6.029,-0.012,0.033,0.001,110.0,110.0,107.0,13.4,1505.2,345.1,-0.8,1.8,2471.569,13.29,0.035,340.0
2023-12-09T01:28:03,42.805,6.029,-0.027,0.0,0.001,111.0,110.0,107.0,13.3,1505.2,343.0,-0.8,1.8,2471.577,13.29,0.026,270.0
2023-12-09T01:31:03,42.805,6.029,-0.028,0.019,-0.004,110.0,110.0,107.0,13.3,1505.2,355.6,-0.8,1.8,2471.501,13.29,0.033,304.2
2023-12-09T01:34:03,42.805,6.029,-0.015,0.003,-0.054,111.0,109.0,108.0,13.4,1505.2,355.6,-0.7,1.8,2471.508,13.29,0.015,281.3
2023-12-09T01:37:03,42.805,6.029,-0.005,0.037,0.007,109.0,110.0,106.0,13.4,1505.2,0.7,-0.8,1.8,2471.558,13.29,0.037,352.3
2023-12-09T01:40:03,42.805,6.029,-0.027,0.021,-0.048,111.0,110.0,106.0,13.4,1505.2,338.3,-0.7,1.8,2471.555,13.29,0.034,307.9
2023-12-09T01:43:03,42.805,6.029,-0.014,0.017,-0.027,111.0,109.0,107.0,13.3,1505.2,344.6,-0.8,1.8,2471.53,13.29,0.022,320.5
2023-12-09T01:46:03,42.805,6.029,-0.007,0.019,-0.022,110.0,110.0,107.0,13.4,1505.2,0.8,-0.7,1.8,2471.555,13.29,0.02,339.8
2023-12-09T01:49:03,42.805,6.029,-0.007,0.035,0.007,111.0,109.0,106.0,13.4,1505.2,344.5,-0.8,1.8,2471.538,13.29,0.035,348.7
2023-12-09T01:52:03,42.805,6.029,0.001,0.02,-0.024,110.0,109.0,106.0,13.4,1505.2,351.1,-0.8,1.8,2471.555,13.29,0.02,2.9
2023-12-09T01:55:03,42.805,6.029,-0.011,0.045,-0.017,109.0,109.0,107.0,13.3,1505.2,347.6,-0.7,1.8,2471.571,13.29,0.046,346.3
2023-12-09T01:58:03,42.805,6.029,-0.006,0.051,-0.006,110.0,110.0,106.0,13.3,1505.2,354.5,-0.8,1.8,2471.569,13.29,0.051,353.3
2023-12-09T02:04:03,42.805,6.029,-0.003,0.013,-0.044,111.0,108.0,107.0,13.3,1505.2,343.6,-0.8,1.8,2471.607,13.29,0.013,347.0
2023-12-09T02:07:03,42.805,6.029,-0.002,0.014,-0.007,110.0,109.0,109.0,13.4,1505.2,343.0,-0.8,1.8,2471.635,13.29,0.014,351.9
2023-12-09T02:10:03,42.805,6.029,-0.013,0.022,-0.007,111.0,109.0,107.0,13.3,1505.2,354.5,-0.8,1.8,2471.591,13.29,0.025,329.4
2023-12-09T02:13:03,42.805,6.029,-0.012,0.009,-0.02,110.0,109.0,106.0,13.4,1505.2,343.9,-0.7,1.8,2471.641,13.29,0.015,306.9
2023-12-09T02:16:03,42.805,6.029,-0.006,-0.001,0.003,110.0,109.0,107.0,13.4,1505.2,342.5,-0.8,1.8,2471.586,13.29,0.006,260.5
2023-12-09T02:19:03,42.805,6.029,-0.01,0.006,-0.018,110.0,110.0,106.0,13.4,1505.2,350.5,-0.7,1.8,2471.632,13.29,0.011,301.0
2023-12-09T02:22:03,42.805,6.029,0.007,0.003,-0.015,108.0,109.0,107.0,13.4,1505.2,348.6,-0.8,1.8,2471.583,13.29,0.007,66.8
2023-12-09T02:25:03,42.805,6.029,-0.006,0.015,-0.035,110.0,108.0,107.0,13.3,1505.2,351.3,-0.8,1.8,2471.588,13.29,0.016,338.2
2023-12-09T02:28:03,42.805,6.029,-0.008,0.029,-0.007,111.0,110.0,105.0,13.3,1505.2,0.8,-0.7,1.8,2471.569,13.29,0.03,344.6
2023-12-09T02:31:03,42.805,6.029,-0.023,-0.01,-0.012,109.0,110.0,107.0,13.3,1505.2,337.6,-0.8,1.8,2471.561,13.29,0.025,246.5
2023-12-09T02:34:03,42.805,6.029,-0.006,0.026,-0.024,110.0,109.0,106.0,13.4,1505.2,357.5,-0.8,1.8,2471.561,13.29,0.026,347.0
2023-12-09T02:37:03,42.805,6.029,-0.008,0.016,-0.011,110.0,109.0,106.0,13.4,1505.2,359.1,-0.8,1.8,2471.616,13.29,0.017,333.4
2023-12-09T02:40:03,42.805,6.029,-0.015,-0.001,-0.009,109.0,109.0,107.0,13.4,1505.2,341.8,-0.7,1.8,2471.641,13.29,0.015,266.2
2023-12-09T02:43:03,42.805,6.029,-0.01,-0.003,-0.038,110.0,108.0,107.0,13.4,1505.2,344.3,-0.7,1.8,2471.58,13.29,0.01,253.3
2023-12-09T02:46:03,42.805,6.029,-0.02,0.0,-0.022,110.0,110.0,105.0,13.3,1505.2,344.3,-0.7,1.8,2471.615,13.29,0.02,270.0
2023-12-09T02:49:03,42.805,6.029,-0.004,0.016,-0.028,110.0,110.0,106.0,13.3,1505.2,358.4,-0.7,1.8,2471.633,13.29,0.016,346.0
2023-12-09T02:52:03,42.805,6.029,-0.008,0.019,-0.007,110.0,110.0,107.0,13.4,1505.2,341.5,-0.8,1.8,2471.589,13.29,0.02,337.2
2023-12-09T02:55:03,42.805,6.029,-0.006,0.003,0.002,110.0,108.0,107.0,13.4,1505.2,343.9,-0.8,1.8,2471.615,13.29,0.006,296.6
2023-12-09T02:58:03,42.805,6.029,-0.012,0.017,-0.021,110.0,107.0,107.0,13.4,1505.2,0.8,-0.7,1.8,2471.588,13.29,0.02,324.8
2023-12-09T03:04:03,42.805,6.029,-0.017,0.024,-0.022,110.0,110.0,107.0,13.4,1505.2,346.7,-0.7,1.8,2471.656,13.29,0.029,324.7
2023-12-09T03:07:03,42.805,6.029,-0.011,-0.044,-0.036,110.0,109.0,106.0,13.4,1505.2,345.7,-0.8,1.8,2471.644,13.29,0.045,194.0
2023-12-09T03:10:03,42.805,6.029,-0.004,0.002,-0.034,111.0,109.0,107.0,13.4,1505.2,2.5,-0.7,1.8,2471.632,13.29,0.004,296.6
2023-12-09T03:13:03,42.805,6.029,-0.011,0.007,-0.018,110.0,110.0,107.0,13.4,1505.2,349.5,-0.8,1.8,2471.655,13.29,0.013,302.5
2023-12-09T03:16:03,42.805,6.029,-0.022,0.013,-0.038,111.0,107.0,107.0,13.3,1505.2,356.5,-0.8,1.8,2471.615,13.29,0.025,300.6
2023-12-09T03:19:03,42.805,6.029,-0.017,-0.003,-0.003,110.0,110.0,106.0,13.4,1505.2,0.8,-0.8,1.8,2471.674,13.29,0.017,260.0
2023-12-09T03:22:03,42.805,6.029,-0.012,0.018,0.012,111.0,109.0,106.0,13.4,1505.2,346.3,-0.8,1.8,2471.597,13.29,0.021,326.3
2023-12-09T03:25:03,42.805,6.029,-0.003,0.009,-0.023,109.0,110.0,107.0,13.4,1505.2,3.3,-0.8,1.8,2471.597,13.29,0.009,341.6
2023-12-09T03:28:03,42.805,6.029,-0.005,-0.001,-0.011,109.0,109.0,107.0,13.3,1505.2,345.9,-0.8,1.8,2471.609,13.29,0.005,258.7
2023-12-09T03:31:03,42.805,6.029,-0.023,0.007,-0.029,109.0,109.0,106.0,13.3,1505.2,343.7,-0.7,1.8,2471.616,13.29,0.024,286.9
2023-12-09T03:34:03,42.805,6.029,-0.014,0.002,-0.051,110.0,110.0,107.0,13.3,1505.2,344.6,-0.8,1.8,2471.62,13.29,0.014,278.1
2023-12-09T03:37:03,42.805,6.029,-0.026,0.021,-0.042,110.0,110.0,107.0,13.3,1505.2,343.9,-0.8,1.8,2471.63,13.29,0.033,308.9
2023-12-09T03:40:03,42.805,6.029,-0.034,-0.017,0.0,111.0,109.0,106.0,13.4,1505.2,1.5,-0.8,1.8,2471.608,13.29,0.038,243.4
2023-12-09T03:43:03,42.805,6.029,-0.009,0.017,0.002,115.0,109.0,106.0,13.4,1505.2,342.2,-0.8,1.8,2471.628,13.29,0.019,332.1
2023-12-09T03:46:03,42.805,6.029,0.0,-0.005,-0.018,110.0,110.0,106.0,13.3,1505.2,350.5,-0.8,1.8,2471.628,13.29,0.005,180.0
2023-12-09T03:49:03,42.805,6.029,-0.027,0.003,-0.019,112.0,109.0,107.0,13.3,1505.2,344.3,-0.8,1.8,2471.619,13.29,0.027,276.3
2023-12-09T03:52:03,42.805,6.029,0.022,0.008,-0.009,112.0,110.0,107.0,13.4,1505.2,355.3,-0.7,1.8,2471.645,13.29,0.023,70.0
2023-12-09T03:55:03,42.805,6.029,-0.009,0.014,-0.037,116.0,110.0,106.0,13.3,1505.2,341.2,-0.8,1.8,2471.616,13.29,0.016,327.3
2023-12-09T03:58:03,42.805,6.029,-0.017,-0.006,0.004,112.0,110.0,107.0,13.4,1505.2,354.2,-0.8,1.8,2471.59,13.29,0.018,250.6
2023-12-09T04:04:03,42.805,6.029,0.01,-0.001,-0.011,113.0,109.0,112.0,13.4,1505.2,356.3,-0.8,1.8,2471.675,13.29,0.01,95.7
2023-12-09T04:07:03,42.805,6.029,-0.015,0.006,-0.023,111.0,108.0,107.0,13.4,1505.2,0.0,-0.8,1.8,2471.675,13.29,0.016,291.8
2023-12-09T04:10:03,42.805,6.029,-0.023,0.0,-0.037,112.0,109.0,107.0,13.4,1505.2,347.0,-0.8,1.8,2471.67,13.29,0.023,270.0
2023-12-09T04:13:03,42.805,6.029,-0.024,0.004,-0.036,110.0,110.0,106.0,13.4,1505.2,349.2,-0.7,1.8,2471.646,13.29,0.024,279.5
2023-12-09T04:16:03,42.805,6.029,-0.03,-0.006,-0.031,109.0,110.0,106.0,13.4,1505.2,345.9,-0.8,1.8,2471.683,13.29,0.03,258.7
2023-12-09T04:19:03,42.805,6.029,-0.005,0.001,-0.017,109.0,109.0,107.0,13.3,1505.2,352.1,-0.8,1.8,2471.648,13.29,0.005,281.3
2023-12-09T04:22:03,42.805,6.029,-0.015,-0.018,-0.007,112.0,109.0,106.0,13.4,1505.2,350.2,-0.7,1.8,2471.684,13.29,0.023,219.8
2023-12-09T04:25:03,42.805,6.029,-0.029,-0.009,-0.012,109.0,109.0,107.0,13.3,1505.2,344.7,-0.7,1.8,2471.675,13.29,0.03,252.8
2023-12-09T04:28:03,42.805,6.029,-0.019,0.015,-0.015,110.0,109.0,106.0,13.4,1505.2,358.2,-0.8,1.9,2471.671,13.29,0.024,308.3
2023-12-09T04:31:03,42.805,6.029,0.007,0.008,-0.008,110.0,109.0,107.0,13.4,1505.2,342.5,-0.8,1.8,2471.62,13.29,0.01,41.2
2023-12-09T04:34:03,42.805,6.029,-0.016,0.001,0.0,110.0,108.0,106.0,13.3,1505.2,357.5,-0.8,1.8,2471.641,13.29,0.016,273.6
2023-12-09T04:37:03,42.805,6.029,-0.029,0.007,-0.03,109.0,109.0,106.0,13.4,1505.2,344.0,-0.8,1.8,2471.631,13.29,0.029,283.6
2023-12-09T04:40:03,42.805,6.029,-0.015,-0.013,0.014,110.0,109.0,106.0,13.3,1505.2,359.1,-0.8,1.8,2471.657,13.29,0.019,229.1
2023-12-09T04:43:03,42.805,6.029,-0.03,-0.007,0.003,111.0,110.0,107.0,13.4,1505.2,346.5,-0.8,1.8,2471.634,13.29,0.03,256.9
2023-12-09T04:46:03,42.805,6.029,-0.025,0.013,-0.025,110.0,108.0,106.0,13.4,1505.2,344.2,-0.8,1.8,2471.68,13.29,0.028,297.5
2023-12-09T04:49:03,42.805,6.029,-0.013,-0.001,-0.028,110.0,110.0,106.0,13.4,1505.2,348.0,-0.7,1.8,2471.629,13.29,0.013,265.6
2023-12-09T04:52:03,42.805,6.029,-0.022,-0.016,-0.014,111.0,109.0,107.0,13.3,1505.2,347.8,-0.8,1.8,2471.648,13.29,0.027,234.0
2023-12-09T04:55:03,42.805,6.029,-0.01,-0.007,-0.012,109.0,109.0,106.0,13.4,1505.2,357.5,-0.8,1.8,2471.626,13.29,0.012,235.0
2023-12-09T04:58:03,42.805,6.029,-0.008,-0.016,-0.043,109.0,109.0,107.0,13.4,1505.2,339.6,-0.7,1.8,2471.651,13.29,0.017,206.6
2023-12-09T05:04:03,42.805,6.029,-0.022,0.022,-0.011,110.0,110.0,106.0,13.3,1505.2,352.3,-0.8,1.8,2471.696,13.29,0.031,315.0
2023-12-09T05:07:03,42.805,6.029,-0.007,0.0,-0.007,111.0,109.0,106.0,13.4,1505.2,352.6,-0.8,1.8,2471.684,13.29,0.007,270.0
2023-12-09T05:10:03,42.805,6.029,0.001,0.005,-0.001,110.0,108.0,108.0,13.4,1505.2,2.4,-0.8,1.8,2471.699,13.29,0.005,11.3
2023-12-09T05:13:03,42.805,6.029,-0.025,-0.008,-0.023,111.0,110.0,107.0,13.4,1505.2,337.6,-0.8,1.8,2471.668,13.29,0.026,252.3
2023-12-09T05:16:03,42.805,6.029,-0.033,-0.011,-0.028,109.0,109.0,105.0,13.3,1505.2,343.9,-0.8,1.8,2471.651,13.29,0.034,251.6
2023-12-09T05:19:03,42.805,6.029,-0.009,0.013,-0.043,110.0,108.0,106.0,13.4,1505.2,350.3,-0.8,1.8,2471.648,13.29,0.015,325.3
2023-12-09T05:22:03,42.805,6.029,-0.008,0.002,0.004,110.0,110.0,106.0,13.3,1505.2,348.3,-0.7,1.8,2471.636,13.29,0.008,284.0
2023-12-09T05:25:03,42.805,6.029,-0.037,0.008,-0.01,110.0,109.0,106.0,13.4,1505.2,354.3,-0.8,1.8,2471.628,13.29,0.037,282.2
2023-12-09T05:28:03,42.805,6.029,-0.023,0.011,-0.03,110.0,109.0,107.0,13.3,1505.2,353.7,-0.7,1.8,2471.625,13.29,0.025,295.6
2023-12-09T05:31:03,42.805,6.029,-0.031,-0.004,-0.01,110.0,108.0,106.0,13.4,1505.2,0.8,-0.7,1.8,2471.686,13.29,0.031,262.7
2023-12-09T05:34:03,42.805,6.029,-0.023,0.024,-0.001,109.0,109.0,106.0,13.4,1505.2,358.4,-0.8,1.9,2471.629,13.29,0.033,316.2
2023-12-09T05:37:03,42.805,6.029,-0.029,-0.025,0.003,111.0,108.0,106.0,13.4,1505.2,337.1,-0.8,1.8,2471.662,13.29,0.038,229.2
2023-12-09T05:40:03,42.805,6.029,-0.037,0.003,0.011,111.0,110.0,106.0,13.4,1505.2,352.4,-0.8,1.8,2471.678,13.29,0.037,274.6
2023-12-09T05:43:03,42.805,6.029,-0.028,-0.006,-0.034,110.0,108.0,106.0,13.3,1505.2,354.6,-0.7,1.8,2471.65,13.29,0.028,257.9
2023-12-09T05:46:03,42.805,6.029,-0.018,0.018,-0.059,109.0,109.0,106.0,13.4,1505.2,357.5,-0.8,1.9,2471.634,13.29,0.025,315.0
2023-12-09T05:49:03,42.805,6.029,-0.026,0.001,-0.001,108.0,108.0,105.0,13.4,1505.2,348.1,-0.8,1.8,2471.637,13.29,0.026,272.2
2023-12-09T05:52:03,42.805,6.029,-0.014,-0.023,-0.04,108.0,109.0,105.0,13.4,1505.2,345.5,-0.7,1.8,2471.611,13.29,0.026,211.3
2023-12-09T05:55:03,42.805,6.029,-0.046,-0.005,-0.008,110.0,108.0,106.0,13.3,1505.2,2.5,-0.8,1.8,2471.628,13.29,0.046,263.8
2023-12-09T05:58:03,42.805,6.029,-0.025,-0.007,-0.018,108.0,108.0,106.0,13.4,1505.2,358.3,-0.8,1.8,2471.649,13.29,0.025,254.4
2023-12-09T06:04:03,42.805,6.029,-0.013,-0.02,-0.009,109.0,109.0,106.0,13.3,1505.2,343.3,-0.8,1.8,2471.692,13.29,0.023,213.0
2023-12-09T06:07:03,42.805,6.029,-0.018,0.004,-0.038,110.0,108.0,105.0,13.3,1505.2,358.3,-0.8,1.8,2471.68,13.29,0.018,282.5
2023-12-09T06:10:03,42.805,6.029,-0.026,-0.003,-0.053,109.0,109.0,105.0,13.4,1505.2,346.8,-0.7,1.8,2471.686,13.29,0.026,263.4
2023-12-09T06:13:03,42.805,6.029,-0.017,0.004,-0.045,109.0,108.0,106.0,13.3,1505.2,355.1,-0.7,1.8,2471.673,13.29,0.017,283.2
2023-12-09T06:16:03,42.805,6.029,-0.018,0.012,-0.014,110.0,108.0,106.0,13.4,1505.2,350.2,-0.7,1.8,2471.677,13.29,0.021,303.7
2023-12-09T06:19:03,42.805,6.029,-0.023,0.0,-0.021,110.0,109.0,107.0,13.3,1505.2,1.7,-0.8,1.8,2471.636,13.29,0.023,270.0
2023-12-09T06:22:03,42.805,6.029,-0.032,-0.007,-0.009,109.0,108.0,106.0,13.4,1505.2,337.9,-0.8,1.8,2471.658,13.29,0.032,257.7
2023-12-09T06:25:03,42.805,6.029,-0.012,0.005,-0.009,109.0,109.0,106.0,13.3,1505.2,348.8,-0.8,1.8,2471.625,13.29,0.013,292.6
2023-12-09T06:28:03,42.805,6.029,-0.045,0.002,-0.01,109.0,109.0,107.0,13.4,1505.2,357.5,-0.8,1.8,2471.625,13.29,0.045,272.5
2023-12-09T06:31:03,42.805,6.029,-0.006,-0.031,-0.017,110.0,109.0,106.0,13.4,1505.2,337.3,-0.8,1.8,2471.636,13.29,0.031,191.0
2023-12-09T06:34:03,42.805,6.029,-0.025,0.004,-0.016,110.0,109.0,106.0,13.3,1505.2,349.0,-0.8,1.8,2471.625,13.29,0.025,279.1
2023-12-09T06:37:03,42.805,6.029,-0.016,0.009,0.015,109.0,109.0,106.0,13.4,1505.2,345.7,-0.8,1.8,2471.651,13.29,0.018,299.4
2023-12-09T06:40:03,42.805,6.029,-0.034,0.004,-0.034,109.0,108.0,107.0,13.3,1505.2,359.1,-0.8,1.8,2471.666,13.29,0.034,276.7
2023-12-09T06:43:03,42.805,6.029,-0.032,-0.005,0.0,110.0,108.0,106.0,13.4,1505.2,349.2,-0.7,1.8,2471.613,13.29,0.032,261.1
2023-12-09T06:46:03,42.805,6.029,-0.029,-0.03,-0.032,109.0,110.0,106.0,13.3,1505.2,342.3,-0.8,1.8,2471.661,13.29,0.041,224.0
2023-12-09T06:49:03,42.805,6.029,-0.022,-0.004,-0.033,109.0,109.0,106.0,13.4,1505.2,352.7,-0.8,1.8,2471.661,13.29,0.022,259.7
2023-12-09T06:52:03,42.805,6.029,-0.034,-0.011,-0.022,109.0,110.0,106.0,13.3,1505.2,340.6,-0.7,1.8,2471.63,13.29,0.035,252.1
2023-12-09T06:55:03,42.805,6.029,-0.033,0.01,0.009,111.0,110.0,107.0,13.4,1505.2,346.9,-0.8,1.8,2471.657,13.29,0.034,286.9
2023-12-09T06:58:03,42.805,6.029,-0.03,0.004,-0.032,110.0,109.0,107.0,13.4,1505.2,355.6,-0.8,1.8,2471.608,13.29,0.03,277.6
2023-12-09T07:04:03,42.805,6.029,-0.05,-0.003,-0.021,111.0,110.0,106.0,13.4,1505.2,354.0,-0.7,1.8,2471.693,13.29,0.05,266.6
2023-12-09T07:07:03,42.805,6.029,-0.031,-0.006,-0.054,110.0,109.0,106.0,13.4,1505.2,357.6,-0.8,1.8,2471.622,13.29,0.031,259.0
2023-12-09T07:10:03,42.805,6.029,-0.03,-0.002,-0.024,109.0,110.0,107.0,13.4,1505.2,357.4,-0.8,1.8,2471.651,13.29,0.03,266.2
2023-12-09T07:13:03,42.805,6.029,-0.029,0.007,-0.005,110.0,110.0,106.0,13.4,1505.2,345.1,-0.8,1.8,2471.662,13.29,0.029,283.6
2023-12-09T07:16:03,42.805,6.029,-0.035,0.013,-0.019,110.0,110.0,107.0,13.4,1505.2,4.0,-0.8,1.8,2471.627,13.29,0.037,290.4
2023-12-09T07:19:03,42.805,6.029,-0.023,0.003,-0.019,110.0,110.0,106.0,13.4,1505.2,350.4,-0.7,1.8,2471.64,13.29,0.023,277.4
2023-12-09T07:22:03,42.805,6.029,-0.044,0.008,-0.025,111.0,110.0,107.0,13.4,1505.2,355.6,-0.8,1.8,2471.655,13.29,0.044,280.3
2023-12-09T07:25:03,42.805,6.029,-0.044,-0.006,-0.017,111.0,110.0,108.0,13.3,1505.2,343.0,-0.7,1.8,2471.631,13.29,0.044,262.2
2023-12-09T07:28:03,42.805,6.029,-0.036,0.005,-0.016,110.0,110.0,107.0,13.4,1505.2,353.8,-0.8,1.8,2471.594,13.29,0.036,277.9
2023-12-09T07:31:03,42.805,6.029,-0.03,0.004,-0.001,111.0,110.0,107.0,13.3,1505.2,356.0,-0.7,1.8,2471.62,13.29,0.03,277.6
2023-12-09T07:34:03,42.805,6.029,-0.034,-0.014,-0.026,111.0,109.0,107.0,13.4,1505.2,341.0,-0.7,1.8,2471.586,13.29,0.036,247.6
2023-12-09T07:37:03,42.805,6.029,-0.045,0.022,-0.011,110.0,109.0,107.0,13.3,1505.2,355.6,-0.8,1.8,2471.625,13.29,0.05,296.1
2023-12-09T07:40:03,42.805,6.029,-0.034,0.002,-0.001,111.0,108.0,107.0,13.4,1505.2,0.8,-0.8,1.8,2471.565,13.29,0.034,273.4
2023-12-09T07:43:03,42.805,6.029,-0.046,0.0,-0.031,111.0,109.0,108.0,13.3,1505.2,339.8,-0.8,1.8,2471.606,13.29,0.046,270.0
2023-12-09T07:46:03,42.805,6.029,-0.037,-0.004,-0.021,112.0,110.0,107.0,13.4,1505.2,342.8,-0.8,1.8,2471.591,13.29,0.037,263.8
2023-12-09T07:49:03,42.805,6.029,-0.042,-0.004,-0.021,111.0,109.0,106.0,13.3,1505.2,356.7,-0.7,1.8,2471.614,13.29,0.042,264.6
2023-12-09T07:52:03,42.805,6.029,-0.053,-0.001,-0.014,110.0,109.0,106.0,13.3,1505.2,348.8,-0.7,1.8,2471.633,13.29,0.053,268.9
2023-12-09T07:55:03,42.805,6.029,-0.035,0.02,-0.014,110.0,109.0,107.0,13.3,1505.2,1.7,-0.8,1.8,2471.587,13.29,0.04,299.7
2023-12-09T07:58:03,42.805,6.029,-0.042,0.003,-0.017,111.0,109.0,107.0,13.4,1505.2,2.4,-0.8,1.8,2471.551,13.29,0.042,274.1
2023-12-09T08:04:03,42.805,6.029,-0.059,-0.008,-0.041,110.0,109.0,107.0,13.4,1505.2,354.8,-0.8,1.8,2471.653,13.29,0.059,262.3
2023-12-09T08:07:03,42.805,6.029,-0.023,0.0,-0.013,110.0,109.0,106.0,13.4,1505.2,344.7,-0.8,1.8,2471.619,13.29,0.023,270.0
2023-12-09T08:10:03,42.805,6.029,-0.038,0.013,0.008,110.0,109.0,108.0,13.4,1505.2,347.3,-0.8,1.8,2471.658,13.29,0.04,288.9
2023-12-09T08:13:03,42.805,6.029,-0.047,0.034,-0.057,111.0,110.0,107.0,13.4,1505.2,1.7,-0.8,1.8,2471.606,13.29,0.058,305.9
2023-12-09T08:16:03,42.805,6.029,-0.014,-0.017,-0.021,111.0,109.0,107.0,13.3,1505.2,346.1,-0.7,1.8,2471.581,13.29,0.022,219.5
2023-12-09T08:19:03,42.805,6.029,-0.046,0.001,-0.025,110.0,110.0,106.0,13.4,1505.2,344.6,-0.8,1.8,2471.624,13.29,0.046,271.2
2023-12-09T08:22:03,42.805,6.029,-0.032,0.0,-0.045,110.0,110.0,107.0,13.4,1505.2,352.7,-0.7,1.8,2471.625,13.29,0.032,270.0
2023-12-09T08:25:03,42.805,6.029,-0.045,0.01,-0.02,109.0,109.0,106.0,13.4,1505.2,342.8,-0.8,1.8,2471.608,13.29,0.046,282.5
2023-12-09T08:28:03,42.805,6.029,-0.039,0.014,-0.025,111.0,109.0,106.0,13.4,1505.2,0.8,-0.8,1.8,2471.603,13.29,0.041,289.7
2023-12-09T08:31:03,42.805,6.029,-0.049,0.007,-0.029,110.0,109.0,106.0,13.4,1505.2,352.7,-0.8,1.8,2471.603,13.29,0.049,278.1
2023-12-09T08:34:03,42.805,6.029,-0.045,-0.01,-0.049,110.0,109.0,106.0,13.4,1505.2,353.1,-0.7,1.8,2471.602,13.29,0.046,257.5
2023-12-09T08:37:03,42.805,6.029,-0.051,0.011,-0.045,111.0,109.0,106.0,13.4,1505.2,343.7,-0.8,1.8,2471.612,13.29,0.052,282.2
2023-12-09T08:40:03,42.805,6.029,-0.048,0.0,-0.01,111.0,110.0,106.0,13.4,1505.2,349.9,-0.8,1.8,2471.575,13.29,0.048,270.0
2023-12-09T08:43:03,42.805,6.029,-0.027,-0.002,-0.002,110.0,109.0,106.0,13.3,1505.2,357.2,-0.8,1.8,2471.566,13.29,0.027,265.8
2023-12-09T08:46:03,42.805,6.029,-0.064,0.017,0.014,111.0,110.0,106.0,13.4,1505.2,351.1,-0.7,1.8,2471.593,13.29,0.066,284.9
2023-12-09T08:49:03,42.805,6.029,-0.041,-0.006,-0.013,110.0,109.0,106.0,13.3,1505.2,338.0,-0.8,1.8,2471.56,13.29,0.041,261.7
2023-12-09T08:52:03,42.805,6.029,-0.058,0.019,-0.026,110.0,109.0,106.0,13.4,1505.2,356.6,-0.8,1.8,2471.574,13.29,0.061,288.1
2023-12-09T08:55:03,42.805,6.029,-0.038,0.002,-0.033,110.0,109.0,108.0,13.3,1505.2,345.1,-0.8,1.8,2471.57,13.29,0.038,273.0
2023-12-09T08:58:03,42.805,6.029,-0.034,0.014,-0.017,110.0,109.0,106.0,13.4,1505.2,0.8,-0.7,1.8,2471.601,13.29,0.036,292.4
2023-12-09T09:04:03,42.805,6.029,-0.032,0.0,0.008,110.0,108.0,107.0,13.3,1505.2,338.7,-0.8,1.8,2471.658,13.29,0.032,270.0
2023-12-09T09:07:03,42.805,6.029,-0.034,-0.004,0.002,110.0,109.0,106.0,13.4,1505.2,345.3,-0.8,1.8,2471.613,13.29,0.034,263.3
2023-12-09T09:10:03,42.805,6.029,-0.028,0.023,-0.007,110.0,108.0,106.0,13.4,1505.2,350.5,-0.8,1.8,2471.624,13.29,0.036,309.4
2023-12-09T09:13:03,42.805,6.029,-0.034,0.015,0.001,110.0,109.0,107.0,13.4,1505.2,355.4,-0.8,1.8,2471.642,13.29,0.037,293.8
2023-12-09T09:16:03,42.805,6.029,-0.017,-0.026,-0.01,110.0,110.0,107.0,13.4,1505.2,335.5,-0.8,1.8,2471.607,13.29,0.031,213.2
2023-12-09T09:19:03,42.805,6.029,-0.052,0.024,-0.02,111.0,109.0,107.0,13.4,1505.2,351.1,-0.7,1.8,2471.598,13.29,0.057,294.8
2023-12-09T09:22:03,42.805,6.029,-0.04,0.015,-0.018,110.0,110.0,107.0,13.4,1505.2,346.1,-0.8,1.8,2471.559,13.29,0.042,290.6
2023-12-09T09:25:03,42.805,6.029,-0.05,0.02,-0.038,110.0,108.0,107.0,13.4,1505.2,354.7,-0.8,1.8,2471.607,13.29,0.053,291.8
2023-12-09T09:28:03,42.805,6.029,-0.038,0.006,0.005,110.0,110.0,107.0,13.4,1505.2,343.1,-0.7,1.8,2471.544,13.29,0.038,279.0
2023-12-09T09:31:03,42.805,6.029,-0.051,0.017,0.003,111.0,109.0,108.0,13.4,1505.2,346.3,-0.8,1.8,2471.57,13.29,0.053,288.4
2023-12-09T09:34:03,42.805,6.029,-0.038,0.004,-0.044,110.0,109.0,107.0,13.3,1505.2,353.8,-0.8,1.8,2471.587,13.29,0.038,276.0
2023-12-09T09:37:03,42.805,6.029,-0.025,0.0,-0.016,111.0,109.0,107.0,13.4,1505.2,345.7,-0.8,1.8,2471.6,13.29,0.025,270.0
2023-12-09T09:40:03,42.805,6.029,-0.047,0.013,-0.026,110.0,110.0,107.0,13.4,1505.2,348.1,-0.7,1.8,2471.601,13.29,0.048,285.5
2023-12-09T09:43:03,42.805,6.029,-0.044,0.017,-0.012,110.0,111.0,107.0,13.4,1505.2,354.2,-0.8,1.8,2471.575,13.29,0.047,291.1
2023-12-09T09:46:03,42.805,6.029,-0.028,0.017,-0.013,111.0,110.0,106.0,13.3,1505.2,0.8,-0.7,1.8,2471.585,13.29,0.032,301.3
2023-12-09T09:49:03,42.805,6.029,-0.053,-0.007,-0.028,110.0,108.0,106.0,13.4,1505.2,342.9,-0.8,1.8,2471.604,13.29,0.053,262.5
2023-12-09T09:52:03,42.805,6.029,-0.026,0.011,-0.025,110.0,109.0,105.0,13.4,1505.2,352.5,-0.8,1.8,2471.541,13.29,0.028,292.9
2023-12-09T09:55:03,42.805,6.029,-0.032,0.015,-0.024,111.0,110.0,107.0,13.3,1505.2,343.4,-0.8,1.8,2471.581,13.29,0.035,295.1